Location: St. Louis
(38.6270°N, 90.1994°W)
Time: 01:25:05
(UTC-06:00)

Vanguard 2 - Pass Details

Date: 06 December 2021
Orbit: 553 x 2936 km, 32.9° (Epoch: 16 January)

Event Time Altitude Azimuth Distance (km) Brightness Sun altitude
Rises 18:54:31 0° 263° (W) 4,182 12.7 -25.7°
Reaches altitude 10° 18:58:16 10° 244° (WSW) 3,604 11.9 -26.4°
Maximum altitude 19:04:03 18° 207° (SSW) 3,591 11.3 -27.5°
Drops below altitude 10° 19:11:29 10° 172° (S) 4,810 11.5 -29.0°
Sets 19:17:55 0° 156° (SSE) 6,253 12.0 -30.2°
